H1 CPF 2 COD 2023 6 23 1 174 1 galileo213 NONE
H2 1606903 7213 41861 2023 6 22 23 59 42 2023 6 27 23 59 42 900 1 1 0 0 0 1
H5 0.5552
H9
10 0 60120  75582.000000  0  -16566363.922   4127868.687 -24169738.696
10 0 60120  76482.000000  0  -16920124.168   1970348.287 -24196406.893
10 0 60120  77382.000000  0  -17416843.782   -147346.585 -23921894.402
10 0 60120  78282.000000  0  -18044909.044  -2189913.116 -23349609.332
10 0 60120  79182.000000  0  -18787159.894  -4124551.178 -22486668.587
10 0 60120  80082.000000  0  -19621422.319  -5921925.567 -21343809.543
10 0 60120  80982.000000  0  -20521201.103  -7557019.490 -19935256.507
10 0 60120  81882.000000  0  -21456511.226  -9009852.650 -18278543.580
10 0 60120  82782.000000  0  -22394821.825 -10266041.524 -16394296.100
10 0 60120  83682.000000  0  -23302083.102 -11317184.367 -14305973.387
10 0 60120  84582.000000  0  -24143803.904 -12161058.992 -12039575.971
10 0 60120  85482.000000  0  -24886146.111 -12801627.230  -9623320.987
10 0 60120  86382.000000  0  -25497001.439 -13248846.070  -7087289.795
10 0 60121    882.000000  0  -25947016.765 -13518291.563  -4463052.291
10 0 60121   1782.000000  0  -26210535.742 -13630607.452  -1783272.647
10 0 60121   2682.000000  0  -26266427.083 -13610796.000    918698.513
10 0 60121   3582.000000  0  -26098773.480 -13487373.484   3609240.323
10 0 60121   4482.000000  0  -25697399.506 -13291417.025   6254881.000
10 0 60121   5382.000000  0  -25058221.946 -13055532.860   8822714.958
10 0 60121   6282.000000  0  -24183411.585 -12812778.588  11280812.462
10 0 60121   7182.000000  0  -23081361.433 -12595573.348  13598616.667
10 0 60121   8082.000000  0  -21766462.433 -12434630.215  15747323.084
10 0 60121   8982.000000  0  -20258693.748 -12357944.363  17700236.771
10 0 60121   9882.000000  0  -18583040.510 -12389868.752  19433102.851
10 0 60121  10782.000000  0  -16768757.315 -12550306.305  20924406.341
10 0 60121  11682.000000  0  -14848500.508 -12854043.846  22155637.667
10 0 60121  12582.000000  0  -12857356.399 -13310248.626  23111520.697
10 0 60121  13482.000000  0  -10831795.720 -13922143.134  23780200.602
10 0 60121  14382.000000  0   -8808586.914 -14686868.337  24153389.348
10 0 60121  15282.000000  0   -6823702.079 -15595539.579  24226467.135
10 0 60121  16182.000000  0   -4911249.568 -16633493.402  23998538.643
10 0 60121  17082.000000  0   -3102466.411 -17780717.595  23472443.439
10 0 60121  17982.000000  0   -1424801.830 -19012451.071  22654720.490
10 0 60121  18882.000000  0      98879.719 -20299934.917  21555527.186
10 0 60121  19782.000000  0    1450951.273 -21611291.236  20188513.884
10 0 60121  20682.000000  0    2619511.599 -22912502.444  18570655.430
10 0 60121  21582.000000  0    3598693.834 -24168460.504  16722041.677
10 0 60121  22482.000000  0    4388784.957 -25344053.425  14665629.481
10 0 60121  23382.000000  0    4996152.444 -26405255.122  12426959.131
10 0 60121  24282.000000  0    5432980.414 -27320184.603  10033838.619
10 0 60121  25182.000000  0    5716823.573 -28060101.391   7515999.553
10 0 60121  26082.000000  0    5869992.911 -28600305.984   4904728.907
10 0 60121  26982.000000  0    5918792.424 -28920917.152   2232481.101
10 0 60121  27882.000000  0    5892630.770 -29007501.622   -467524.798
10 0 60121  28782.000000  0    5823035.764 -28851536.349  -3161717.768
10 0 60121  29682.000000  0    5742602.639 -28450688.771  -5816592.278
10 0 60121  30582.000000  0    5683909.144 -27808906.136  -8399125.250
10 0 60121  31482.000000  0    5678431.598 -26936310.986 -10877187.325
10 0 60121  32382.000000  0    5755496.023 -25848905.954 -13219943.229
10 0 60121  33282.000000  0    5941297.398 -24568097.026 -15398236.226
10 0 60121  34182.000000  0    6258017.938 -23120050.125 -17384951.784
10 0 60121  35082.000000  0    6723072.230 -21534901.089 -19155355.907
10 0 60121  35982.000000  0    7348503.056 -19845843.755 -20687403.847
10 0 60121  36882.000000  0    8140547.008 -18088124.670 -21962015.347
10 0 60121  37782.000000  0    9099383.700 -16297975.856 -22963312.954
10 0 60121  38682.000000  0   10219076.569 -14511519.056 -23678820.429
10 0 60121  39582.000000  0   11487707.304 -12763675.707 -24099618.772
10 0 60121  40482.000000  0   12887699.798 -11087116.765 -24220457.905
10 0 60121  41382.000000  0   14396323.650  -9511285.209 -24039822.642
10 0 60121  42282.000000  0   15986361.515  -8061521.794 -23559952.069
10 0 60121  43182.000000  0   17626919.547  -6758321.377 -22786812.113
10 0 60121  44082.000000  0   19284355.598  -5616743.054 -21730021.590
10 0 60121  44982.000000  0   20923296.192  -4645992.501 -20402732.637
10 0 60121  45882.000000  0   22507710.442  -3849189.543 -18821466.978
10 0 60121  46782.000000  0   24002007.299  -3223328.133 -17005910.042
10 0 60121  47682.000000  0   25372121.769  -2759429.897 -14978665.473
10 0 60121  48582.000000  0   26586556.037  -2442886.306 -12764973.091
10 0 60121  49482.000000  0   27617342.866  -2253978.615 -10392393.816
10 0 60121  50382.000000  0   28440901.049  -2168559.105  -7890465.523
10 0 60121  51282.000000  0   29038756.083  -2158872.087  -5290334.148
10 0 60121  52182.000000  0   29398103.479  -2194488.728  -2624364.732
10 0 60121  53082.000000  0   29512197.050  -2243326.183     74262.692
10 0 60121  53982.000000  0   29380550.065  -2272718.859   2771967.224
10 0 60121  54882.000000  0   29008943.018  -2250508.017   5435185.986
10 0 60121  55782.000000  0   28409237.861  -2146115.365   8030792.476
10 0 60121  56682.000000  0   27599004.651  -1931566.811  10526509.085
10 0 60121  57582.000000  0   26600972.419  -1582434.162  12891308.604
10 0 60121  58482.000000  0   25442321.606  -1078665.154  15095799.691
10 0 60121  59382.000000  0   24153840.342   -405275.738  17112591.503
10 0 60121  60282.000000  0   22768971.088    447117.081  18916633.013
10 0 60121  61182.000000  0   21322777.551   1481938.560  20485522.848
10 0 60121  62082.000000  0   19850864.219   2696486.841  21799785.913
10 0 60121  62982.000000  0   18388282.327   4081956.176  22843113.478
10 0 60121  63882.000000  0   16968456.373   5623652.024  23602563.882
10 0 60121  64782.000000  0   15622164.691   7301391.321  24068721.499
10 0 60121  65682.000000  0   14376605.786   9090075.452  24235812.132
10 0 60121  66582.000000  0   13254579.481  10960418.100  24101773.485
10 0 60121  67482.000000  0   12273808.299  12879805.333  23668279.961
10 0 60121  68382.000000  0   11446420.139  14813261.204  22940721.496
10 0 60121  69282.000000  0   10778608.264  16724488.852  21928136.721
10 0 60121  70182.000000  0   10270479.115  18576954.756  20643101.266
10 0 60121  71082.000000  0    9916092.617  20334982.433  19101572.509
10 0 60121  71982.000000  0    9703693.663  21964821.576  17322692.646
10 0 60121  72882.000000  0    9616127.501  23435659.343  15328552.395
10 0 60121  73782.000000  0    9631426.018  24720542.314  13143918.157
10 0 60121  74682.000000  0    9723546.586  25797180.340  10795925.906
10 0 60121  75582.000000  0    9863240.332  26648607.200   8313745.495
10 0 60121  76482.000000  0   10019022.666  27263677.388   5728219.447
10 0 60121  77382.000000  0   10158215.627  27637383.474   3071480.652
10 0 60121  78282.000000  0   10248029.362  27770984.041    376553.663
10 0 60121  79182.000000  0   10256648.784  27671938.157  -2323055.472
10 0 60121  80082.000000  0   10154291.226  27353648.369  -4993775.730
10 0 60121  80982.000000  0    9914201.839  26835020.215  -7602388.803
10 0 60121  81882.000000  0    9513555.352  26139852.029 -10116442.686
10 0 60121  82782.000000  0    8934235.765  25296074.124 -12504655.997
10 0 60121  83682.000000  0    8163469.337  24334861.207 -14737307.912
10 0 60121  84582.000000  0    7194290.844  23289645.841 -16786608.818
10 0 60121  85482.000000  0    6025828.284  22195063.913 -18627047.008
10 0 60121  86382.000000  0    4663396.928  21085865.186 -20235707.067
10 0 60122    882.000000  0    3118399.585  19995823.122 -21592555.940
10 0 60122   1782.000000  0    1408036.022  18956678.192 -22680693.111
10 0 60122   2682.000000  0    -445169.508  17997147.810 -23486561.745
10 0 60122   3582.000000  0   -2414007.997  17142033.975 -24000118.173
10 0 60122   4482.000000  0   -4467372.780  16411456.590 -24214957.597
10 0 60122   5382.000000  0   -6571169.472  15820236.505 -24128394.431
10 0 60122   6282.000000  0   -8689320.397  15377447.644 -23741496.288
10 0 60122   7182.000000  0  -10784832.145  15086152.230 -23059071.154
10 0 60122   8082.000000  0  -12820892.946  14943327.406 -22089607.893
10 0 60122   8982.000000  0  -14761965.577  14939985.539 -20845170.796
10 0 60122   9882.000000  0  -16574841.650  15061484.393 -19341249.451
10 0 60122  10782.000000  0  -18229624.328  15288017.402 -17596565.785
10 0 60122  11682.000000  0  -19700608.740  15595268.608 -15632840.646
10 0 60122  12582.000000  0  -20967032.572  15955211.644 -13474522.827
10 0 60122  13482.000000  0  -22013673.359  16337027.591 -11148483.916
10 0 60122  14382.000000  0  -22831273.837  16708112.806  -8683682.786
10 0 60122  15282.000000  0  -23416782.093  17035144.974  -6110803.957
10 0 60122  16182.000000  0  -23773399.086  17285173.776  -3461874.396
10 0 60122  17082.000000  0  -23910432.167  17426701.825   -769863.595
10 0 60122  17982.000000  0  -23842959.332  17430721.813   1931727.967
10 0 60122  18882.000000  0  -23591314.905  17271677.188   4609286.799
10 0 60122  19782.000000  0  -23180412.938  16928316.149   7229505.477
10 0 60122  20682.000000  0  -22638929.741  16384412.060   9759797.542
10 0 60122  21582.000000  0  -21998371.325  15629327.672  12168702.995
10 0 60122  22482.000000  0  -21292055.164  14658405.421  14426279.294
10 0 60122  23382.000000  0  -20554038.315  13473171.588  16504472.996
10 0 60122  24282.000000  0  -19818025.574  12081347.916  18377467.451
10 0 60122  25182.000000  0  -19116291.924  10496670.374  20022002.282
10 0 60122  26082.000000  0  -18478653.049   8738520.725  21417660.775
99